CT2HRB-13 Weather Reports


Display with metric or nautical units.
time (UTC)temp
F
wind
direction
speed
MPH
gust
MPH
rain 1hr
in
rain 24hr
in
rain mn
in
humidity
%
barometer
mb
20260503230001 55 0.0 0.0 0.00 0.00 0.00 80 1015.7
20260503225502 55 0.0 0.0 0.00 0.00 0.00 80 1015.7
20260503225002 55 0.0 0.0 0.00 0.00 0.00 80 1015.7
20260503224502 55 0.0 0.0 0.00 0.00 0.00 80 1015.7
20260503224001 55 0.0 0.0 0.00 0.00 0.00 80 1015.7
20260503223501 55 0.0 0.0 0.00 0.00 0.00 80 1015.6
20260503223001 55 0.0 0.0 0.00 0.00 0.00 80 1015.7
20260503222502 55 0.0 0.0 0.00 0.00 0.00 80 1015.8
20260503222002 55 0.0 0.0 0.00 0.00 0.00 80 1015.7
20260503221501 55 0.0 0.0 0.00 0.00 0.00 80 1015.7
20260503221002 55 0.0 0.0 0.00 0.00 0.00 80 1015.7
20260503220502 55 0.0 0.0 0.00 0.00 0.00 80 1015.7
20260503220002 55 0.0 0.0 0.00 0.00 0.00 80 1015.6
20260503215501 55 0.0 0.0 0.00 0.00 0.00 80 1015.8
20260503215002 55 0.0 0.0 0.00 0.00 0.00 80 1015.7
20260503214501 55 0.0 0.0 0.00 0.00 0.00 80 1015.6
20260503214001 55 0.0 0.0 0.00 0.00 0.00 80 1015.6
20260503213501 55 0.0 0.0 0.00 0.00 0.00 80 1015.4
20260503213001 55 0.0 0.0 0.00 0.00 0.00 80 1015.5
20260503212502 55 0.0 0.0 0.00 0.00 0.00 80 1015.4
20260503212001 55 0.0 0.0 0.00 0.00 0.00 81 1015.5
20260503211501 55 0.0 0.0 0.00 0.00 0.00 80 1015.4
20260503211001 55 0.0 0.0 0.00 0.00 0.00 80 1015.2
20260503210501 55 0.0 0.0 0.00 0.00 0.00 80 1015.2
20260503210002 56 0.0 0.0 0.00 0.00 0.00 80 1015.4
20260503205502 56 0.0 0.0 0.00 0.00 0.00 80 1015.0
20260503205001 56 0.0 0.0 0.00 0.00 0.00 80 1014.9
20260503204501 56 0.0 0.0 0.00 0.00 0.00 79 1015.0
20260503204001 56 0.0 0.0 0.00 0.00 0.00 79 1014.8
20260503203501 56 0.0 0.0 0.00 0.00 0.00 78 1014.9
20260503203001 56 0.0 0.0 0.00 0.00 0.00 78 1014.8
20260503202502 56 0.0 0.0 0.00 0.00 0.00 78 1014.7
20260503202002 56 0.0 0.0 0.00 0.00 0.00 77 1014.7
20260503201501 56 0.0 0.0 0.00 0.00 0.00 77 1014.5
20260503201001 57 0.0 0.0 0.00 0.00 0.00 77 1014.4
20260503200501 57 0.0 0.0 0.00 0.00 0.00 77 1014.3
20260503200001 57 0.0 0.0 0.00 0.00 0.00 77 1014.2
20260503195502 57 0.0 0.0 0.00 0.00 0.00 77 1014.3
20260503195001 57 0.0 0.0 0.00 0.00 0.00 77 1014.1
20260503194501 57 0.0 0.0 0.00 0.00 0.00 77 1014.1
20260503194002 57 0.0 0.0 0.00 0.00 0.00 77 1014.0
20260503193502 58 0.0 0.0 0.00 0.00 0.00 76 1014.2
20260503193001 58 0.0 0.0 0.00 0.00 0.00 77 1013.8
20260503192501 58 0.0 0.0 0.00 0.00 0.00 77 1014.0
20260503192002 58 0.0 0.0 0.00 0.00 0.00 77 1014.0
20260503191501 58 0.0 0.0 0.00 0.00 0.00 76 1013.9
20260503191001 59 0.0 0.0 0.00 0.00 0.00 76 1013.7
20260503190501 59 0.0 0.0 0.00 0.00 0.00 75 1013.8
20260503190001 59 0.0 0.0 0.00 0.00 0.00 75 1013.6
20260503185502 59 0.0 0.0 0.00 0.00 0.00 75 1013.6
20260503185001 59 0.0 0.0 0.00 0.00 0.00 74 1013.7
20260503184501 59 0.0 0.0 0.00 0.00 0.00 74 1013.6
20260503184002 60 0.0 0.0 0.00 0.00 0.00 73 1013.7
20260503183501 60 0.0 0.0 0.00 0.00 0.00 73 1013.5
20260503183001 60 0.0 0.0 0.00 0.00 0.00 73 1013.6
20260503182502 60 0.0 0.0 0.00 0.00 0.00 72 1013.5
20260503182001 60 0.0 0.0 0.00 0.00 0.00 72 1013.4
20260503181502 61 0.0 0.0 0.00 0.00 0.00 72 1013.5
20260503181001 61 0.0 0.0 0.00 0.00 0.00 71 1013.6
20260503180502 61 0.0 0.0 0.00 0.00 0.00 70 1013.6
20260503180001 62 0.0 0.0 0.00 0.00 0.00 69 1013.5
20260503175501 62 0.0 0.0 0.00 0.00 0.00 67 1013.6
20260503175002 63 0.0 0.0 0.00 0.00 0.00 68 1013.5
20260503174502 63 0.0 0.0 0.00 0.00 0.00 68 1013.7
20260503174001 64 0.0 0.0 0.00 0.00 0.00 68 1013.6
20260503173501 63 0.0 0.0 0.00 0.00 0.00 68 1013.5
20260503173001 63 0.0 0.0 0.00 0.00 0.00 68 1013.6
20260503172501 62 0.0 0.0 0.00 0.00 0.00 68 1013.7
20260503172001 63 0.0 0.0 0.00 0.00 0.00 66 1013.6
20260503171501 64 0.0 0.0 0.00 0.00 0.00 65 1013.8
20260503171001 64 0.0 0.0 0.00 0.00 0.00 62 1013.7
20260503170501 65 0.0 0.0 0.00 0.00 0.00 64 1013.5
20260503151002 65 0.0 0.0 0.00 0.00 0.00 67 1013.9
20260503150502 65 0.0 0.0 0.00 0.00 0.00 68 1013.9
20260503131002 69 0.0 0.0 0.00 0.00 0.00 57 1014.1
20260503130502 69 0.0 0.0 0.00 0.00 0.00 55 1014.1
20260503110501 69 0.0 0.0 0.00 0.00 0.00 59 1014.6
20260503090501 63 0.0 0.0 0.00 0.00 0.00 74 1014.7
20260503081502 63 0.0 0.0 0.00 0.00 0.00 74 1014.7
20260503081001 63 0.0 0.0 0.00 0.00 0.00 74 1014.6
20260503080501 63 0.0 0.0 0.00 0.00 0.00 73 1014.5
20260503072501 63 0.0 0.0 0.00 0.00 0.00 78 1014.2
20260503072001 63 0.0 0.0 0.00 0.00 0.00 78 1014.3
20260503071501 62 0.0 0.0 0.00 0.00 0.00 79 1014.4
20260503071001 62 0.0 0.0 0.00 0.00 0.00 81 1014.3
20260503070501 62 0.0 0.0 0.00 0.00 0.00 82 1014.4
20260503055001 56 0.0 0.0 0.00 0.00 0.00 85 1014.0
20260503054502 56 0.0 0.0 0.00 0.00 0.00 85 1013.8
20260503054001 56 0.0 0.0 0.00 0.00 0.00 85 1013.9
20260503053501 56 0.0 0.0 0.00 0.00 0.00 85 1014.0
20260503053001 56 0.0 0.0 0.00 0.00 0.00 85 1013.8
20260503052501 56 0.0 0.0 0.00 0.00 0.00 85 1013.6
20260503052001 56 0.0 0.0 0.00 0.00 0.00 86 1013.7
20260503051502 56 0.0 0.0 0.00 0.00 0.00 86 1013.8
20260503051002 56 0.0 0.0 0.00 0.00 0.00 86 1013.8
20260503050502 56 0.0 0.0 0.00 0.00 0.00 86 1013.9
20260503050002 56 0.0 0.0 0.00 0.00 0.00 86 1013.8
20260503045502 56 0.0 0.0 0.00 0.00 0.00 86 1013.9
20260503045001 56 0.0 0.0 0.00 0.00 0.00 86 1013.8
20260503044501 56 0.0 0.0 0.00 0.00 0.00 86 1014.0
20260503044002 56 0.0 0.0 0.00 0.00 0.00 86 1013.8
20260503043502 56 0.0 0.0 0.00 0.00 0.00 86 1013.8
20260503043002 56 0.0 0.0 0.00 0.00 0.00 86 1013.6
20260503042502 56 0.0 0.0 0.00 0.00 0.00 86 1014.1
20260503042001 56 0.0 0.0 0.00 0.00 0.00 87 1013.9
20260503041501 56 0.0 0.0 0.00 0.00 0.00 87 1013.7
20260503041001 56 0.0 0.0 0.00 0.00 0.00 87 1013.9
20260503040501 56 0.0 0.0 0.00 0.00 0.00 87 1013.8
20260503040001 56 0.0 0.0 0.00 0.00 0.00 87 1013.9
20260503035501 56 0.0 0.0 0.00 0.00 0.00 87 1013.8
20260503035002 56 0.0 0.0 0.00 0.00 0.00 87 1013.8
20260503034502 56 0.0 0.0 0.00 0.00 0.00 87 1013.8
20260503034001 56 0.0 0.0 0.00 0.00 0.00 87 1013.7
20260503033502 56 0.0 0.0 0.00 0.00 0.00 87 1013.9
20260503033001 56 0.0 0.0 0.00 0.00 0.00 87 1013.9
20260503032501 56 0.0 0.0 0.00 0.00 0.00 87 1014.0
20260503032002 56 0.0 0.0 0.00 0.00 0.00 87 1014.0
20260503031502 56 0.0 0.0 0.00 0.00 0.00 87 1013.9
20260503031002 56 0.0 0.0 0.00 0.00 0.00 87 1013.9
20260503030502 56 0.0 0.0 0.00 0.00 0.00 87 1014.0
20260503030002 56 0.0 0.0 0.00 0.00 0.00 86 1013.9
20260503025501 56 0.0 0.0 0.00 0.00 0.00 87 1013.9
20260503025001 56 0.0 0.0 0.00 0.00 0.00 87 1014.1
20260503024501 56 0.0 0.0 0.00 0.00 0.00 86 1013.9
20260503024002 56 0.0 0.0 0.00 0.00 0.00 86 1013.9
20260503023502 56 0.0 0.0 0.00 0.00 0.00 86 1014.0
20260503023001 56 0.0 0.0 0.00 0.00 0.00 86 1014.0
20260503022502 56 0.0 0.0 0.00 0.00 0.00 86 1014.0
20260503022002 56 0.0 0.0 0.00 0.00 0.00 86 1014.1
20260503021501 56 0.0 0.0 0.00 0.00 0.00 85 1014.2
20260503021002 56 0.0 0.0 0.00 0.00 0.00 85 1014.2
20260503020501 56 0.0 0.0 0.00 0.00 0.00 85 1014.3
20260503020001 56 0.0 0.0 0.00 0.00 0.00 85 1014.3
20260503015501 56 0.0 0.0 0.00 0.00 0.00 85 1014.2
20260503015001 56 0.0 0.0 0.00 0.00 0.00 85 1014.3
20260503014501 56 0.0 0.0 0.00 0.00 0.00 85 1014.4
20260503014002 56 0.0 0.0 0.00 0.00 0.00 85 1014.3
20260503013501 57 0.0 0.0 0.00 0.00 0.00 85 1014.6
20260503013001 57 0.0 0.0 0.00 0.00 0.00 85 1014.5
20260503012502 57 0.0 0.0 0.00 0.00 0.00 85 1014.5
20260503012002 57 0.0 0.0 0.00 0.00 0.00 85 1014.5
20260503011501 57 0.0 0.0 0.00 0.00 0.00 85 1014.7
20260503011001 57 0.0 0.0 0.00 0.00 0.00 85 1014.6
20260503010501 57 0.0 0.0 0.00 0.00 0.00 85 1014.9
20260503010001 57 0.0 0.0 0.00 0.00 0.00 85 1014.6
20260503005501 58 0.0 0.0 0.00 0.00 0.00 84 1014.7
20260503005002 58 0.0 0.0 0.00 0.00 0.00 84 1014.9
20260503004501 58 0.0 0.0 0.00 0.00 0.00 84 1014.8
20260503004002 58 0.0 0.0 0.00 0.00 0.00 84 1014.8
20260503003501 58 0.0 0.0 0.00 0.00 0.00 84 1015.2
20260503003001 59 0.0 0.0 0.00 0.00 0.00 84 1015.0
20260503002501 59 0.0 0.0 0.00 0.00 0.00 84 1015.0
20260503002002 59 0.0 0.0 0.00 0.00 0.00 84 1015.2
20260503001502 59 0.0 0.0 0.00 0.00 0.00 84 1015.2
20260503001002 58 0.0 0.0 0.00 0.00 0.00 84 1015.4
20260503000501 58 0.0 0.0 0.00 0.00 0.00 84 1015.3
20260503000001 58 0.0 0.0 0.00 0.00 0.00 83 1015.3
20260502235501 58 0.0 0.0 0.00 0.00 0.00 83 1015.3
20260502235002 58 0.0 0.0 0.00 0.00 0.00 83 1015.4
20260502234501 58 0.0 0.0 0.00 0.00 0.00 83 1015.5
20260502234001 58 0.0 0.0 0.00 0.00 0.00 83 1015.4
20260502233501 58 0.0 0.0 0.00 0.00 0.00 83 1015.4
20260502233002 59 0.0 0.0 0.00 0.00 0.00 83 1015.6
20260502232501 58 0.0 0.0 0.00 0.00 0.00 83 1015.5
20260502232001 58 0.0 0.0 0.00 0.00 0.00 83 1015.5
20260502231502 58 0.0 0.0 0.00 0.00 0.00 84 1015.5
20260502231001 58 0.0 0.0 0.00 0.00 0.00 83 1015.6
20260502230501 58 0.0 0.0 0.00 0.00 0.00 84 1015.7